User: anonymous   Login
Location: Unspecified
(0.0000°N, 0.0000°E)
Time: 20:36:32
(UTC+00:00)
Language:

USA 112 - Orbit

View from above orbital plane
View from above orbital plane
View from above satellite
View from above satellite

Ground track
Ground track

The orbit data is extracted from the following two-line orbital elements,

1 23609U 95034A   17224.59809556 0.00000000  00000-0  00000-0 0    07
2 23609  63.2163 144.0701 6886692 265.5558  19.6549  2.00608000    01
Epoch (UTC): 12 August 2017 14:21:15
Eccentricity: 0.6886692
inclination: 63.2163°
perigee height: 1889 km
apogee height: 38466 km
right ascension of ascending node: 144.0701°
argument of perigee: 265.5558°
revolutions per day: 2.00608000
mean anomaly at epoch: 19.6549°
orbit number at epoch: 0

The dashed part of the orbit path shows where the satellite is in the earth's shadow,  

DLR